Location: Chenereilles
(45.4866°N, 4.0790°E)
Time: 01:59:44
(UTC+00:00)

COSMO-SKYMED 1 - Pass Details

Date: 12 November 2019
Orbit: 621 x 623 km, 97.9° (Epoch: 09 December)

Event Time Altitude Azimuth Distance (km) Brightness Sun altitude
Rises 17:02:08 0° 24° (NNE) 2,913 5.6 -8.2°
Reaches altitude 10° 17:04:40 10° 38° (NE) 2,001 4.7 -8.6°
Maximum altitude 17:08:17 25° 94° (E) 1,258 3.6 -9.2°
Drops below altitude 10° 17:11:52 10° 151° (SSE) 1,986 5.0 -9.8°
Sets 17:14:22 0° 164° (SSE) 2,887 6.0 -10.3°
